Showing default

SPACEWAY 3, 32018

Orbit data source: Space-Track

SPACEWAY 3, 32018 is a payload satellite owned by Hughes NS (US) in GEO that was launched on Tue, 14 Aug 2007 UTC via an ARIANE 5ECA launch vehicle from the French Guiana (FRGUI). Payload-class satellites include a variety of spacecraft equipped with specific instruments for various scientific and technological missions. These include communications satellites like Starlink; space stations such as the ISS; scientific satellites like the Hubble; Earth observation satellites from companies like Planet Labs, Umbra, and HawkEye 360; GPS; miniature CubeSats for education and research; and military/defense satellites.

Loading next visibility...
Identifier
32018, 2007-036A
Orbit
GEO
Country
Flag of USUS
Related business
Manufacturer
Boeing/ES
Mission
Non-operational Commercial Communications
Bus & Motor
BSS-702HP, R-4D-15-375
Mass
6,075 kg wet, 3,655 kg dry
Launch date (UTC)
2007-08-14 (18 years ago)
Launch vehicle
ARIANE 5ECA
Launch site
French Guiana (FRGUI)
Object type
Payload
Rocket body
Debris
Shape & HBR
Box + 2 Pan, 20.4 m
Radar Cross Section
53.753 m², Large (>1 m²)

Expand to show TLE details & history
Last TLE update: 17 hours ago

TLE from 17 hours ago
0 SPACEWAY 3
1 32018U 07036A   25296.56294847  .00000037  00000-0  00000+0 0  9998
2 32018   3.3854  79.9491 0003574 141.0202 221.8015  0.99141090 44119
Epoch: 2025-10-23T13:30Z
TLE epoch observation values (Epoch: 2025-10-23T13:30:38.747Z)
Latitude
0.15873°
Longitude
-152.17839°
Altitude
36,117.429 km
Speed
3.062 km/s
True Right ascension
05h 30m 48s
True Declination
0° 09' 31"
Sunlit
Object was in daylight at epoch
Visualization orbit readout
Latitude
Unknown
Longitude
Unknown
Altitude
Unknown
Speed
Unknown
Apparent Right ascension
Unknown
Apparent Declination
Unknown
Sunlit
N/A
Visualization observer readout
Local Sidereal Time
02:00:21
Azimuth
Unknown
Elevation
Unknown
Doppler factor
Unknown
Orbital elements
Apogee altitude
36,122.82 km
Perigee altitude
36,092.451 km
Semi-major axis
42,485.773 km
Eccentricity
0.00036
Inclination
3.3854°
RAAN
79.9491°
Arg. of periapsis
141.0202°
True anomaly
221.77421°
Mean anomaly
221.8015°
Eccentric anomaly
221.78785°
Mean motion
0.24784 °/min
Orbital period
1,452.53 mins
BSTAR
0
Loading maneuver chart data...
Computing Atmospheric mass density...
Loading historical data...
Loading historical data...
Loading historical data...
Loading historical data...
Loading historical data...
Loading historical data...
Loading historical data...
Other satellites on launch #36 in the year 2007 (2007-08-14 UTC)

Documentation

Showing up to 5 results
|